Regional Weather Roundup
Issued by NWS Kansas City/Pleasant Hill, MO

Home | Current Version | Previous Version | Text Only | Print | Product List | Glossary On
Versions: 1 2 3 4 5 6 7 8 9 10 11 12 13 14 15 16 17 18 19 20 21 22 23 24 25 26 27 28
000
ASUS43 KEAX 240210
RWREAX

WEATHER ROUNDUP FOR EASTERN KANSAS AND NORTHWEST MISSOURI
NATIONAL WEATHER SERVICE KANSAS CITY/PLEASANT HILL MO
900 PM CDT THU MAR 23 2017

KSZ040-057-103>105-MOZ028-029-037-043-240300-
...KANSAS CITY METROPOLITAN AREA...

CITY           SKY/WX    TMP DP  RH WIND       PRES   REMARKS
K.C. INTL      PTCLDY    71  45  39 S21       29.78R
K.C. DOWNTOWN  PTCLDY    74  44  34 S14G25    29.78R
LEES SUMMIT    CLEAR     71  46  40 S15       29.81R
OLATHE - IXD   CLEAR     70  46  42 S18       29.79R
OLATHE - OJC   CLEAR     69  46  43 S14       29.79R
LAWRENCE       MOCLDY    71  48  43 SE17      29.76S

$$

MOZ001>008-011>017-020>025-030>033-038>040-044>046-053-054-240300-
...NORTHERN AND CENTRAL MISSOURI...

CITY           SKY/WX    TMP DP  RH WIND       PRES   REMARKS
ST. JOSEPH     MOCLDY    72  47  40 S18       29.75R
MOSBY          PTCLDY    72  43  35 S8        29.80R
WARRENSBURG    CLEAR     68  45  42 SE8       29.83R
WHITEMAN AFB   CLEAR     70  51  50 S16       29.82S
CLINTON        PTCLDY    72  45  37 S17G24    29.86R
SEDALIA        CLEAR     72  48  42 S18       29.87R
WARSAW         NOT AVBL
CHILLICOTHE      N/A     72  48  42 S10G20    29.81S
KIRKSVILLE     CLEAR     56  32  40 SE13      29.86R

$$

MOZ041-047>049-056>058-063>065-088>090-097-240300-
...EASTERN AND SOUTHERN MISSOURI...

CITY           SKY/WX    TMP DP  RH WIND       PRES   REMARKS
ST. LOUIS INTL PTCLDY    61  42  49 SE18G29   30.01S
SPIRIT OF STL  CLEAR     61  43  51 SE8       29.99R
COLUMBIA       CLEAR     71  51  49 S18G28    29.90R
JEFFERSON CITY CLEAR     74  50  42 SE14      29.90R
ROLLA          CLEAR     66  50  56 S18G31    29.96R
OSAGE BEACH    CLEAR    N/A N/A N/A S16G24    29.93R
SPRINGFIELD    CLEAR     70  48  45 S20G30    29.92R
BRANSON        PTCLDY    66  50  55 SE10      29.98S
JOPLIN         CLEAR     71  48  43 S12G23    29.87S
WEST PLAINS    CLEAR     63  50  62 SE7       30.04S

$$

IAZ060-094-KSZ022-034>040-054-083-096-NEZ052-066-093-240300-
...KANSAS...SOUTHEAST NEBRASKA AND IOWA...

CITY           SKY/WX    TMP DP  RH WIND       PRES   REMARKS
TOPEKA         PTCLDY    71  50  47 SE15G23   29.74R
MANHATTAN      CLOUDY    72  51  47 S10       29.69R
EMPORIA        PTCLDY    70  53  54 S23G31    29.72S
CHANUTE        CLEAR     71  48  43 SE20      29.78F
WICHITA        MOCLDY    74  45  35 S21G29    29.69R
OMAHA          CLOUDY    72  51  47 SE20      29.64S
LINCOLN        CLOUDY    71  52  50 S23       29.62F
FALLS CITY     CLOUDY    72  47  40 S20G28    29.70R
LAMONI         PTCLDY    69  48  47 S9        29.76R
DES MOINES     PTCLDY    56  38  50 SE9       29.77R

$$





USA.gov is the U.S. government's official web portal to all federal, state and local government web resources and services.